Time,TemperatureF,DewpointF,PressureIn,WindDirection,WindDirectionDegrees,WindSpeedMPH,WindSpeedGustMPH,Humidity,HourlyPrecipIn,Conditions,Clouds,dailyrainin,SoftwareType,DateUTC
2013-08-10 00:01:00,77.0,43.0,29.90,South,184,17.0,24.0,30,0.00,,,0.00,,2013-08-10 07:01:00,
2013-08-10 00:43:00,76.0,42.0,29.91,SSW,202,15.0,20.0,30,0.00,,,0.00,,2013-08-10 07:43:00,
2013-08-10 00:52:00,76.0,42.0,29.91,South,179,13.0,19.0,30,0.00,,,0.00,,2013-08-10 07:52:00,
2013-08-10 01:01:00,76.0,42.0,29.91,SSW,196,15.0,18.0,30,0.00,,,0.00,,2013-08-10 08:01:00,
2013-08-10 01:12:00,75.0,41.0,29.91,South,190,15.0,22.0,30,0.00,,,0.00,,2013-08-10 08:12:00,
2013-08-10 01:21:00,75.0,41.0,29.91,South,185,14.0,20.0,30,0.00,,,0.00,,2013-08-10 08:21:00,
2013-08-10 01:32:00,75.0,42.0,29.90,SSW,196,16.0,21.0,31,0.00,,,0.00,,2013-08-10 08:32:00,
2013-08-10 01:43:00,75.0,41.0,29.90,SSW,196,15.0,20.0,30,0.00,,,0.00,,2013-08-10 08:43:00,
2013-08-10 01:52:00,75.0,42.0,29.90,SSW,194,15.0,20.0,31,0.00,,,0.00,,2013-08-10 08:52:00,
2013-08-10 02:02:00,75.0,42.0,29.89,SSW,194,16.0,21.0,31,0.00,,,0.00,,2013-08-10 09:02:00,
2013-08-10 02:11:00,74.0,41.0,29.89,SSW,200,13.0,20.0,30,0.00,,,0.00,,2013-08-10 09:11:00,
2013-08-10 02:21:00,75.0,41.0,29.90,South,184,13.0,17.0,30,0.00,,,0.00,,2013-08-10 09:21:00,
2013-08-10 02:32:00,74.0,41.0,29.90,South,184,13.0,17.0,31,0.00,,,0.00,,2013-08-10 09:32:00,
2013-08-10 02:42:00,74.0,41.0,29.90,South,188,13.0,17.0,31,0.00,,,0.00,,2013-08-10 09:42:00,
2013-08-10 02:52:00,74.0,41.0,29.90,SSW,194,15.0,20.0,30,0.00,,,0.00,,2013-08-10 09:52:00,
2013-08-10 03:01:00,74.0,41.0,29.90,South,191,14.0,19.0,30,0.00,,,0.00,,2013-08-10 10:01:00,
2013-08-10 03:11:00,74.0,41.0,29.90,South,180,15.0,19.0,30,0.00,,,0.00,,2013-08-10 10:11:00,
2013-08-10 03:33:00,74.0,41.0,29.90,SSW,201,15.0,22.0,30,0.00,,,0.00,,2013-08-10 10:33:00,
2013-08-10 03:43:00,74.0,41.0,29.90,SSW,200,13.0,22.0,31,0.00,,,0.00,,2013-08-10 10:43:00,
2013-08-10 03:52:00,74.0,41.0,29.90,SW,214,9.0,18.0,31,0.00,,,0.00,,2013-08-10 10:52:00,
2013-08-10 04:02:00,73.0,41.0,29.90,SSW,193,11.0,17.0,32,0.00,,,0.00,,2013-08-10 11:02:00,
2013-08-10 04:11:00,73.0,41.0,29.91,SSW,206,10.0,14.0,31,0.00,,,0.00,,2013-08-10 11:11:00,
2013-08-10 04:21:00,73.0,41.0,29.91,SSW,203,11.0,16.0,31,0.00,,,0.00,,2013-08-10 11:21:00,
2013-08-10 04:33:00,73.0,41.0,29.91,SSW,200,11.0,16.0,31,0.00,,,0.00,,2013-08-10 11:33:00,
2013-08-10 04:43:00,72.0,40.0,29.91,South,186,10.0,13.0,31,0.00,,,0.00,,2013-08-10 11:43:00,
2013-08-10 04:52:00,72.0,40.0,29.91,South,183,12.0,14.0,31,0.00,,,0.00,,2013-08-10 11:52:00,
2013-08-10 05:01:00,72.0,40.0,29.91,South,191,12.0,17.0,31,0.00,,,0.00,,2013-08-10 12:01:00,
2013-08-10 05:11:00,72.0,41.0,29.91,SSW,198,14.0,17.0,32,0.00,,,0.00,,2013-08-10 12:11:00,
2013-08-10 05:21:00,72.0,41.0,29.91,SSW,195,12.0,18.0,33,0.00,,,0.00,,2013-08-10 12:21:00,
2013-08-10 05:32:00,71.0,42.0,29.92,SSW,192,13.0,18.0,35,0.00,,,0.00,,2013-08-10 12:32:00,
2013-08-10 05:42:00,71.0,43.0,29.92,SSW,196,14.0,20.0,36,0.00,,,0.00,,2013-08-10 12:42:00,
2013-08-10 05:52:00,71.0,43.0,29.93,SSW,197,14.0,19.0,36,0.00,,,0.00,,2013-08-10 12:52:00,
2013-08-10 06:01:00,71.0,43.0,29.93,SSW,197,14.0,19.0,36,0.00,,,0.00,,2013-08-10 13:01:00,
2013-08-10 06:43:00,70.0,43.0,29.94,SW,217,8.0,15.0,37,0.00,,,0.00,,2013-08-10 13:43:00,
2013-08-10 06:52:00,71.0,43.0,29.95,SW,217,7.0,13.0,37,0.00,,,0.00,,2013-08-10 13:52:00,
2013-08-10 07:01:00,71.0,43.0,29.95,SW,218,7.0,10.0,36,0.00,,,0.00,,2013-08-10 14:01:00,
2013-08-10 07:32:00,72.0,43.0,29.96,SW,222,10.0,16.0,35,0.00,,,0.00,,2013-08-10 14:32:00,
2013-08-10 07:42:00,72.0,42.0,29.96,SW,215,6.0,12.0,34,0.00,,,0.00,,2013-08-10 14:42:00,
2013-08-10 07:53:00,73.0,42.0,29.96,SSW,208,4.0,10.0,33,0.00,,,0.00,,2013-08-10 14:53:00,
2013-08-10 08:22:00,75.0,43.0,29.97,WSW,241,4.0,11.0,32,0.00,,,0.00,,2013-08-10 15:22:00,
2013-08-10 08:33:00,76.0,42.0,29.97,WSW,251,4.0,11.0,30,0.00,,,0.00,,2013-08-10 15:33:00,
2013-08-10 08:43:00,77.0,42.0,30.00,SW,234,3.0,10.0,29,0.00,,,0.00,,2013-08-10 15:43:00,
2013-08-10 08:52:00,77.0,41.0,30.00,WSW,246,2.0,9.0,28,0.00,,,0.00,,2013-08-10 15:52:00,
2013-08-10 09:01:00,78.0,42.0,30.00,WSW,248,1.0,5.0,28,0.00,,,0.00,,2013-08-10 16:01:00,
2013-08-10 09:11:00,78.0,43.0,30.00,WSW,244,3.0,6.0,29,0.00,,,0.00,,2013-08-10 16:11:00,
2013-08-10 09:43:00,80.0,43.0,30.00,West,264,2.0,6.0,27,0.00,,,0.00,,2013-08-10 16:43:00,
2013-08-10 09:53:00,80.0,42.0,30.00,WSW,247,2.0,6.0,26,0.00,,,0.00,,2013-08-10 16:53:00,
2013-08-10 10:02:00,80.0,43.0,30.00,WSW,247,0.0,7.0,27,0.00,,,0.00,,2013-08-10 17:02:00,
2013-08-10 10:11:00,82.0,43.0,30.00,NNW,331,2.0,4.0,25,0.00,,,0.00,,2013-08-10 17:11:00,
2013-08-10 10:21:00,84.0,44.0,30.01,NNW,338,2.0,6.0,25,0.00,,,0.00,,2013-08-10 17:21:00,
2013-08-10 10:33:00,84.0,44.0,30.01,NNE,22,4.0,6.0,25,0.00,,,0.00,,2013-08-10 17:33:00,
2013-08-10 10:43:00,84.0,44.0,30.01,NE,42,1.0,6.0,25,0.00,,,0.00,,2013-08-10 17:43:00,
2013-08-10 10:52:00,86.0,45.0,30.01,NNE,14,4.0,8.0,24,0.00,,,0.00,,2013-08-10 17:52:00,
2013-08-10 11:01:00,85.0,45.0,30.01,East,80,3.0,10.0,25,0.00,,,0.00,,2013-08-10 18:01:00,
2013-08-10 11:11:00,87.0,46.0,30.01,SE,144,1.0,6.0,24,0.00,,,0.00,,2013-08-10 18:11:00,
2013-08-10 11:23:00,86.0,44.0,30.01,East,96,1.0,7.0,23,0.00,,,0.00,,2013-08-10 18:23:00,
2013-08-10 11:32:00,87.0,45.0,30.00,ENE,61,2.0,9.0,23,0.00,,,0.00,,2013-08-10 18:32:00,
2013-08-10 11:43:00,87.0,45.0,30.00,ENE,64,4.0,10.0,23,0.00,,,0.00,,2013-08-10 18:43:00,
2013-08-10 11:52:00,86.0,44.0,30.00,North,360,1.0,10.0,23,0.00,,,0.00,,2013-08-10 18:52:00,
2013-08-10 12:01:00,88.0,44.0,29.99,ENE,64,2.0,7.0,22,0.00,,,0.00,,2013-08-10 19:01:00,
2013-08-10 12:11:00,89.0,44.0,29.99,South,188,9.0,11.0,21,0.00,,,0.00,,2013-08-10 19:11:00,
2013-08-10 12:32:00,89.0,43.0,29.99,SSW,211,7.0,13.0,20,0.00,,,0.00,,2013-08-10 19:32:00,
2013-08-10 12:44:00,90.0,43.0,29.99,SE,136,5.0,9.0,20,0.00,,,0.00,,2013-08-10 19:44:00,
2013-08-10 12:53:00,90.0,42.0,29.99,SSW,207,6.0,11.0,19,0.00,,,0.00,,2013-08-10 19:53:00,
2013-08-10 13:11:00,91.0,42.0,29.98,South,184,1.0,12.0,18,0.00,,,0.00,,2013-08-10 20:11:00,
2013-08-10 13:22:00,91.0,40.0,29.98,SSE,157,4.0,12.0,17,0.00,,,0.00,,2013-08-10 20:22:00,
2013-08-10 13:33:00,91.0,40.0,29.98,South,188,6.0,11.0,17,0.00,,,0.00,,2013-08-10 20:33:00,
2013-08-10 13:43:00,92.0,42.0,29.97,West,263,3.0,12.0,18,0.00,,,0.00,,2013-08-10 20:43:00,
2013-08-10 13:52:00,92.0,42.0,29.96,SSE,161,3.0,16.0,18,0.00,,,0.00,,2013-08-10 20:52:00,
2013-08-10 14:01:00,93.0,43.0,29.96,South,185,3.0,14.0,18,0.00,,,0.00,,2013-08-10 21:01:00,
2013-08-10 14:11:00,94.0,41.0,29.96,SSW,198,2.0,16.0,16,0.00,,,0.00,,2013-08-10 21:11:00,
2013-08-10 14:32:00,94.0,38.0,29.95,SE,140,12.0,20.0,14,0.00,,,0.00,,2013-08-10 21:32:00,
2013-08-10 14:42:00,95.0,36.0,29.95,South,169,5.0,16.0,13,0.00,,,0.00,,2013-08-10 21:42:00,
2013-08-10 14:52:00,94.0,36.0,29.95,SSE,158,10.0,15.0,13,0.00,,,0.00,,2013-08-10 21:52:00,
2013-08-10 15:01:00,95.0,36.0,29.94,South,186,8.0,15.0,13,0.00,,,0.00,,2013-08-10 22:01:00,
2013-08-10 15:11:00,95.0,36.0,29.94,SSE,163,14.0,20.0,13,0.00,,,0.00,,2013-08-10 22:11:00,
2013-08-10 15:43:00,96.0,33.0,29.93,South,175,14.0,22.0,11,0.00,,,0.00,,2013-08-10 22:43:00,
2013-08-10 15:52:00,96.0,35.0,29.92,South,188,14.0,18.0,12,0.00,,,0.00,,2013-08-10 22:52:00,
2013-08-10 16:11:00,96.0,37.0,29.92,South,184,10.0,19.0,13,0.00,,,0.00,,2013-08-10 23:11:00,
2013-08-10 16:22:00,96.0,35.0,29.92,SSW,193,15.0,20.0,12,0.00,,,0.00,,2013-08-10 23:22:00,
2013-08-10 18:21:00,92.0,42.0,29.90,SSW,193,12.0,23.0,18,0.00,,,0.00,,2013-08-11 01:21:00,
2013-08-10 19:21:00,89.0,43.0,29.90,SSW,212,15.0,22.0,20,0.00,,,0.00,,2013-08-11 02:21:00,
2013-08-10 19:32:00,88.0,43.0,29.90,SW,221,12.0,22.0,21,0.00,,,0.00,,2013-08-11 02:32:00,
2013-08-10 19:43:00,88.0,43.0,29.90,SSW,203,11.0,22.0,21,0.00,,,0.00,,2013-08-11 02:43:00,
2013-08-10 19:53:00,87.0,41.0,29.91,SW,231,13.0,21.0,20,0.00,,,0.00,,2013-08-11 02:53:00,
2013-08-10 20:02:00,87.0,42.0,29.91,SW,225,11.0,19.0,21,0.00,,,0.00,,2013-08-11 03:02:00,
2013-08-10 20:11:00,86.0,41.0,29.91,SW,215,10.0,18.0,21,0.00,,,0.00,,2013-08-11 03:11:00,
2013-08-10 20:52:00,84.0,42.0,29.92,SW,222,10.0,19.0,23,0.00,,,0.00,,2013-08-11 03:52:00,
2013-08-10 21:01:00,83.0,41.0,29.92,SW,225,16.0,20.0,23,0.00,,,0.00,,2013-08-11 04:01:00,
2013-08-10 21:11:00,83.0,42.0,29.93,SW,233,13.0,18.0,24,0.00,,,0.00,,2013-08-11 04:11:00,
2013-08-10 21:22:00,82.0,42.0,29.94,SSW,211,9.0,16.0,24,0.00,,,0.00,,2013-08-11 04:22:00,
2013-08-10 21:32:00,81.0,43.0,29.94,SW,216,8.0,13.0,26,0.00,,,0.00,,2013-08-11 04:32:00,
2013-08-10 21:42:00,80.0,42.0,29.94,SW,215,8.0,12.0,26,0.00,,,0.00,,2013-08-11 04:42:00,
2013-08-10 21:53:00,80.0,42.0,29.94,SW,220,7.0,11.0,26,0.00,,,0.00,,2013-08-11 04:53:00,
2013-08-10 22:02:00,80.0,42.0,29.94,SW,235,8.0,12.0,26,0.00,,,0.00,,2013-08-11 05:02:00,
2013-08-10 22:11:00,80.0,41.0,29.95,WSW,241,9.0,13.0,25,0.00,,,0.00,,2013-08-11 05:11:00,
2013-08-10 22:22:00,80.0,42.0,29.95,SW,233,8.0,15.0,26,0.00,,,0.00,,2013-08-11 05:22:00,
2013-08-10 22:33:00,79.0,40.0,29.95,SSW,204,10.0,13.0,25,0.00,,,0.00,,2013-08-11 05:33:00,
2013-08-10 22:52:00,79.0,42.0,29.95,SSW,206,9.0,12.0,27,0.00,,,0.00,,2013-08-11 05:52:00,
2013-08-10 23:11:00,78.0,41.0,29.95,SSW,206,13.0,17.0,27,0.00,,,0.00,,2013-08-11 06:11:00,
2013-08-10 23:32:00,78.0,41.0,29.95,South,190,13.0,17.0,27,0.00,,,0.00,,2013-08-11 06:32:00,
2013-08-10 23:44:00,78.0,41.0,29.95,SSW,198,10.0,17.0,27,0.00,,,0.00,,2013-08-11 06:44:00,
2013-08-10 23:53:00,77.0,40.0,29.95,SW,214,8.0,15.0,27,0.00,,,0.00,,2013-08-11 06:53:00,